Tracking 20037 objects as of 17-Nov-2019
Live streaming from Space Station
objects crossing your sky now

EAGLESAT-1

Track EAGLESAT-1 now!
10-day predictions
EAGLESAT-1 is classified as:


NORAD ID: 43018
Int'l Code: 2017-073F
Perigee: 458.8 km
Apogee: 818.9 km
Inclination: 97.7 °
Period: 97.3 minutes
Semi major axis: 7009 km
RCS: Unknown
Launch date: November 18, 2017
Source: United States (US)
Launch site: AIR FORCE WESTERN TEST RANGE (AFWTR)

Uplink (MHz):
Downlink (MHz): 437.645
Beacon (MHz):
Mode: 1200bps AFSK
Call sign:
Status: Inactive

aabbcc
Your satellite tracking list
Your tracking list is empty




NASA's NSSDC Master Catalog

Two Line Element Set (TLE):
1 43018U 17073F   19320.77285662 +.00001461 +00000-0 +11738-3 0  9997
2 43018 097.7222 236.4676 0256858 025.5919 335.7751 14.79236203107462
Source of the keplerian elements: AFSPC